| time (UTC) | temp F | wind direction | speed MPH | gust MPH | rain 1hr in | rain 24hr in | rain mn in | humidity % | barometer mb |
| 20260905184557 | 94 | 331 | 4.0 | 0.0 | 0.00 | 0.00 | 0.08 | 62 | 1012.2 |
| 20260905183056 | 93 | 30 | 4.0 | 0.0 | 0.00 | 0.00 | 0.08 | 66 | 1012.4 |
| 20260905181606 | 91 | 303 | 3.0 | 0.0 | 0.00 | 0.00 | 0.08 | 68 | 1012.7 |
| 20260905180052 | 87 | 319 | 1.0 | 0.0 | 0.00 | 0.00 | 0.08 | 78 | 1012.8 |
| 20260905174601 | 84 | 306 | 2.0 | 0.0 | 0.00 | 0.00 | 0.08 | 87 | 1013.1 |
| 20260905173054 | 82 | 261 | 3.0 | 0.0 | 0.00 | 0.00 | 0.08 | 86 | 1013.1 |
| 20260905171551 | 85 | 215 | 5.0 | 0.0 | 0.00 | 0.00 | 0.02 | 74 | 1013.4 |
| 20260905170048 | 91 | 25 | 4.0 | 0.0 | 0.00 | 0.00 | 0.00 | 67 | 1013.5 |
| 20260905164546 | 97 | 74 | 2.0 | 0.0 | 0.00 | 0.00 | 0.00 | 57 | 1013.2 |
| 20260905163043 | 96 | 285 | 3.0 | 0.0 | 0.00 | 0.00 | 0.00 | 60 | 1013.5 |
| 20260905161556 | 94 | 296 | 2.0 | 0.0 | 0.00 | 0.00 | 0.00 | 66 | 1013.9 |
| 20260905160036 | 91 | 315 | 2.0 | 0.0 | 0.00 | 0.00 | 0.00 | 67 | 1014.1 |
| 20260905154539 | 91 | 275 | 2.0 | 0.0 | 0.00 | 0.00 | 0.00 | 70 | 1014.2 |
| 20260905153031 | 90 | 285 | 2.0 | 0.0 | 0.00 | 0.00 | 0.00 | 71 | 1014.2 |
| 20260905151531 | 89 | 340 | 2.0 | 0.0 | 0.00 | 0.00 | 0.00 | 73 | 1014.3 |
| 20260905150026 | 88 | 12 | 2.0 | 0.0 | 0.00 | 0.00 | 0.00 | 75 | 1014.2 |
| 20260905144523 | 87 | 334 | 3.0 | 0.0 | 0.00 | 0.00 | 0.00 | 77 | 1014.2 |
| 20260905143026 | 86 | 325 | 3.0 | 0.0 | 0.00 | 0.00 | 0.00 | 80 | 1014.2 |
| 20260905141517 | 84 | 333 | 2.0 | 0.0 | 0.00 | 0.00 | 0.00 | 83 | 1014.1 |
| 20260905140012 | 82 | 35 | 0.0 | 0.0 | 0.00 | 0.00 | 0.00 | 87 | 1014.0 |
| 20260905134508 | 80 | 312 | 0.0 | 0.0 | 0.00 | 0.00 | 0.00 | 93 | 1014.1 |
| 20260905133005 | 78 | 300 | 0.0 | 0.0 | 0.00 | 0.00 | 0.00 | 94 | 1014.2 |
| 20260905131505 | 78 | 274 | 1.0 | 0.0 | 0.00 | 0.00 | 0.00 | 93 | 1014.6 |
| 20260905130007 | 78 | 42 | 1.0 | 0.0 | 0.00 | 0.00 | 0.00 | 94 | 1014.6 |
| 20260905124505 | 78 | 286 | 2.0 | 0.0 | 0.00 | 0.00 | 0.00 | 95 | 1014.5 |
| 20260905123009 | 78 | 67 | 0.0 | 0.0 | 0.00 | 0.00 | 0.00 | 97 | 1014.2 |
| 20260905121502 | 78 | 252 | 0.0 | 0.0 | 0.00 | 0.00 | 0.00 | 96 | 1014.4 |
| 20260905120001 | 78 | 227 | 0.0 | 0.0 | 0.00 | 0.00 | 0.00 | 96 | 1014.0 |
| 20260905114502 | 78 | 158 | 0.0 | 0.0 | 0.00 | 0.00 | 0.00 | 96 | 1013.8 |
| 20260905113001 | 78 | 158 | 0.0 | 0.0 | 0.00 | 0.00 | 0.00 | 96 | 1013.6 |
| 20260905111503 | 78 | 158 | 0.0 | 0.0 | 0.00 | 0.00 | 0.00 | 96 | 1013.6 |
| 20260905110101 | 78 | 119 | 0.0 | 0.0 | 0.00 | 0.00 | 0.00 | 96 | 1013.5 |
| 20260905104614 | 78 | 119 | 0.0 | 0.0 | 0.00 | 0.00 | 0.00 | 97 | 1013.5 |
| 20260905103100 | 78 | 119 | 0.0 | 0.0 | 0.00 | 0.00 | 0.00 | 96 | 1013.2 |
| 20260905101603 | 78 | 119 | 0.0 | 0.0 | 0.00 | 0.00 | 0.00 | 96 | 1013.2 |
| 20260905100101 | 78 | 119 | 0.0 | 0.0 | 0.00 | 0.00 | 0.00 | 96 | 1013.1 |
| 20260905094600 | 78 | 119 | 0.0 | 0.0 | 0.00 | 0.00 | 0.00 | 96 | 1012.9 |
| 20260905093058 | 78 | 119 | 0.0 | 0.0 | 0.00 | 0.00 | 0.00 | 96 | 1012.8 |
| 20260905091626 | 79 | 119 | 0.0 | 0.0 | 0.00 | 0.00 | 0.00 | 96 | 1012.8 |
| 20260905090056 | 78 | 119 | 0.0 | 0.0 | 0.00 | 0.00 | 0.00 | 96 | 1012.7 |
| 20260905084610 | 78 | 119 | 0.0 | 0.0 | 0.00 | 0.00 | 0.00 | 96 | 1012.8 |
| 20260905083055 | 78 | 119 | 0.0 | 0.0 | 0.00 | 0.00 | 0.00 | 96 | 1012.9 |
| 20260905081556 | 78 | 119 | 0.0 | 0.0 | 0.00 | 0.00 | 0.00 | 95 | 1012.8 |
| 20260905074604 | 78 | 119 | 0.0 | 0.0 | 0.00 | 0.00 | 0.00 | 96 | 1013.1 |
| 20260905073052 | 78 | 119 | 0.0 | 0.0 | 0.00 | 0.00 | 0.00 | 95 | 1013.0 |
| 20260905071551 | 78 | 119 | 0.0 | 0.0 | 0.00 | 0.00 | 0.00 | 95 | 1013.1 |
| 20260905070106 | 78 | 119 | 0.0 | 0.0 | 0.00 | 0.00 | 0.00 | 96 | 1013.3 |
| 20260905064549 | 78 | 119 | 0.0 | 0.0 | 0.00 | 0.00 | 0.00 | 95 | 1013.3 |
| 20260905063046 | 78 | 119 | 0.0 | 0.0 | 0.00 | 0.00 | 0.00 | 95 | 1013.5 |
| 20260905061543 | 78 | 119 | 0.0 | 0.0 | 0.00 | 0.00 | 0.00 | 95 | 1013.8 |
| 20260905060041 | 78 | 119 | 0.0 | 0.0 | 0.00 | 0.00 | 0.00 | 95 | 1014.0 |
| 20260905054549 | 78 | 119 | 0.0 | 0.0 | 0.00 | 0.00 | 0.00 | 95 | 1014.2 |
| 20260905053043 | 78 | 119 | 0.0 | 0.0 | 0.00 | 0.00 | 0.00 | 95 | 1014.3 |
| 20260905051542 | 78 | 119 | 0.0 | 0.0 | 0.00 | 0.00 | 0.00 | 95 | 1014.4 |
| 20260905050043 | 78 | 119 | 0.0 | 0.0 | 0.00 | 0.00 | 0.00 | 95 | 1014.7 |
| 20260905044534 | 78 | 119 | 0.0 | 0.0 | 0.00 | 0.00 | 0.00 | 95 | 1014.5 |
| 20260905043034 | 78 | 119 | 0.0 | 0.0 | 0.00 | 0.00 | 0.00 | 95 | 1014.6 |
| 20260905041534 | 78 | 119 | 0.0 | 0.0 | 0.00 | 0.00 | 0.00 | 94 | 1014.5 |
| 20260905040031 | 78 | 119 | 0.0 | 0.0 | 0.00 | 0.00 | 0.00 | 94 | 1014.6 |
| 20260905034537 | 78 | 119 | 0.0 | 0.0 | 0.00 | 0.00 | 0.00 | 94 | 1014.7 |
| 20260905033035 | 78 | 119 | 0.0 | 0.0 | 0.00 | 0.00 | 0.17 | 94 | 1014.7 |
| 20260905031534 | 78 | 119 | 0.0 | 0.0 | 0.00 | 0.00 | 0.17 | 94 | 1015.0 |
| 20260905030033 | 78 | 119 | 0.0 | 0.0 | 0.00 | 0.00 | 0.17 | 94 | 1015.0 |
| 20260905024529 | 79 | 119 | 0.0 | 0.0 | 0.00 | 0.00 | 0.17 | 93 | 1015.0 |
| 20260905023032 | 79 | 119 | 0.0 | 0.0 | 0.00 | 0.00 | 0.17 | 93 | 1015.1 |
| 20260905021528 | 79 | 119 | 0.0 | 0.0 | 0.00 | 0.00 | 0.17 | 94 | 1015.1 |
| 20260905020028 | 79 | 180 | 0.0 | 0.0 | 0.00 | 0.00 | 0.17 | 93 | 1014.9 |
| 20260905014525 | 79 | 180 | 0.0 | 0.0 | 0.00 | 0.00 | 0.17 | 93 | 1014.9 |
| 20260905013027 | 79 | 180 | 0.0 | 0.0 | 0.00 | 0.00 | 0.17 | 93 | 1014.9 |
| 20260905011525 | 79 | 180 | 0.0 | 0.0 | 0.00 | 0.00 | 0.17 | 93 | 1014.8 |
| 20260905010024 | 79 | 180 | 0.0 | 0.0 | 0.00 | 0.00 | 0.17 | 92 | 1014.5 |
| 20260905004526 | 79 | 180 | 0.0 | 0.0 | 0.00 | 0.00 | 0.17 | 92 | 1014.3 |
| 20260905003024 | 79 | 192 | 1.0 | 0.0 | 0.00 | 0.00 | 0.17 | 92 | 1014.1 |
| 20260905001524 | 79 | 184 | 0.0 | 0.0 | 0.00 | 0.00 | 0.17 | 92 | 1013.8 |
| 20260905000024 | 79 | 184 | 0.0 | 0.0 | 0.00 | 0.00 | 0.17 | 92 | 1013.7 |
| 20260904234535 | 79 | 329 | 0.0 | 0.0 | 0.00 | 0.00 | 0.17 | 91 | 1013.5 |
| 20260904233022 | 80 | 329 | 0.0 | 0.0 | 0.00 | 0.00 | 0.17 | 91 | 1013.5 |
| 20260904231522 | 79 | 329 | 0.0 | 0.0 | 0.00 | 0.00 | 0.17 | 91 | 1013.5 |
| 20260904230021 | 79 | 329 | 0.0 | 0.0 | 0.00 | 0.00 | 0.17 | 90 | 1013.5 |
| 20260904224521 | 79 | 330 | 0.0 | 0.0 | 0.00 | 0.00 | 0.17 | 90 | 1013.7 |
| 20260904223021 | 80 | 329 | 0.0 | 0.0 | 0.00 | 0.00 | 0.17 | 89 | 1013.6 |
| 20260904221521 | 79 | 329 | 0.0 | 0.0 | 0.00 | 0.00 | 0.17 | 90 | 1013.7 |
| 20260904220020 | 79 | 167 | 0.0 | 0.0 | 0.00 | 0.00 | 0.17 | 90 | 1013.9 |
| 20260904214522 | 79 | 167 | 0.0 | 0.0 | 0.00 | 0.00 | 0.17 | 90 | 1014.0 |
| 20260904213022 | 78 | 150 | 0.0 | 0.0 | 0.00 | 0.00 | 0.17 | 90 | 1014.1 |
| 20260904211519 | 78 | 296 | 0.0 | 0.0 | 0.00 | 0.00 | 0.17 | 91 | 1014.1 |
| 20260904210019 | 78 | 78 | 0.0 | 0.0 | 0.00 | 0.00 | 0.17 | 91 | 1014.0 |
| 20260904204517 | 78 | 78 | 0.0 | 0.0 | 0.00 | 0.00 | 0.17 | 91 | 1014.2 |
| 20260904203022 | 78 | 42 | 0.0 | 0.0 | 0.00 | 0.00 | 0.17 | 91 | 1014.5 |
| 20260904201517 | 78 | 347 | 0.0 | 0.0 | 0.00 | 0.00 | 0.16 | 90 | 1014.4 |
| 20260904200017 | 78 | 331 | 1.0 | 0.0 | 0.00 | 0.00 | 0.14 | 90 | 1014.4 |
| 20260904194515 | 78 | 65 | 3.0 | 0.0 | 0.00 | 0.00 | 0.14 | 89 | 1014.8 |
| 20260904193014 | 78 | 67 | 2.0 | 0.0 | 0.00 | 0.00 | 0.14 | 89 | 1015.1 |
| 20260904191518 | 78 | 28 | 2.0 | 0.0 | 0.00 | 0.00 | 0.14 | 87 | 1015.0 |